Meteo Giornale » Osservazioni meteo Stati Uniti (USA) » Block Island

ore: 04:56 - Osservazioni Meteo Block Island
Lat. 41° 10' N Lon. 71° 35' W Alt. 33 metri s.l.m.

coperto

20 °C

Coperto

Temp. 24 Ore

18 °C

22 °C

Nord

5.5 Km/h

Dew point 18 °C

Umidità 88 %

Visibilità  10 Km

Il sole sorge alle ore 06:13

Il sole tramonta alle ore 19:19

Data e Ora Cielo e Fenomeni T °C DP °C Um. % Pres. hPa Vis. km Vento km/h
Oggi h: 04:56 coperto Coperto 20 18 88 1017 10 N 5.5
Oggi h: 04:44 coperto Coperto 20 18 88 1017 10 N 5.5
Oggi h: 04:21 coperto Coperto 20 18 88 1017 10 N 0
Oggi h: 03:56 coperto Coperto 21 18 82 1017 10 N 5.5
Oggi h: 02:56 coperto Coperto 20 18 88 1018 10 N 0
Oggi h: 01:56 coperto Coperto 20 18 88 1018 10 N 5.5
Oggi h: 00:56 coperto Coperto 21 17 77 1018 10 N 0
Ieri h: 23:56 coperto Coperto 21 16 73 1019 10 S 7.4
Ieri h: 22:56 molto_nuvoloso Molto Nuvoloso 20 16 77 1018 10 S/SE 13
Ieri h: 21:56 coperto Coperto 21 15 68 1019 10 S 9.3
Ieri h: 20:56 molto_nuvoloso Molto Nuvoloso 20 16 77 1019 10 S/SE 11.1
Ieri h: 19:56 molto_nuvoloso Molto Nuvoloso 21 16 73 1019 10 S 9.3
Ieri h: 18:56 sereno Sereno 21 16 73 1019 10 S 11.1
Ieri h: 17:56 sereno Sereno 21 14 64 1019 10 S 16.7
Ieri h: 16:56 sereno Sereno 21 16 73 1019 10 S/SE 14.8
Ieri h: 15:56 sereno Sereno 22 16 68 1019 10 S/SE 16.7
Ieri h: 14:56 sereno Sereno 22 15 64 1020 10 N 11.1
Ieri h: 13:56 sereno Sereno 22 16 68 1020 10 N 9.3
Ieri h: 12:56 sereno Sereno 21 17 77 1020 10 E/NE 13
Ieri h: 11:56 sereno Sereno 21 17 77 1021 10 E/NE 13
Ieri h: 10:56 sereno Sereno 21 17 77 1020 10 NE 13
Ieri h: 09:56 sereno Sereno 21 16 73 1020 10 E/NE 13
Ieri h: 08:56 sereno Sereno 20 17 82 1020 10 NE 11.1
Ieri h: 07:56 sereno Sereno 19 17 88 1020 10 N/NE 11.1
Ieri h: 06:56 sereno Sereno 18 17 93 1019 10 N 13
Ieri h: 05:56 sereno Sereno 18 17 93 1019 10 N 7.4